Theta_e
281 282 282 282 283 283 283 284 284 285 285 286 286 287 287 287 288 288 288 289 289 289 289 289 289 289 289 289 289 289 289 289 289 288 288 288 287 287 287 287 287 287
280 280 281 281 281 282 282 282 283 283 283 284 284 284 285 285 285 286 286 287 287 288 288 288 288 288 289 289 289 289 289 289 289 289 289 289 289 288 288 288 288 288
279 279 279 280 280 280 281 281 281 282 282 282 282 283 283 283 283 284 284 285 285 286 287 287 287 287 288 288 288 288 289 289 289 289 289 289 288 288 288 288 288 288
279 278 278 279 279 279 279 280 280 280 280 280 281 281 282 282 282 282 283 283 284 284 285 286 286 286 286 286 287 287 287 288 288 288 288 288 288 288 288 288 288 288
278 277 277 277 277 277 278 278 278 278 278 279 279 279 280 280 280 281 281 282 282 283 283 284 285 285 285 286 286 286 286 286 287 287 287 287 287 287 287 287 287 287
277 277 276 276 276 276 277 277 276 277 277 277 277 278 278 279 279 279 280 280 280 281 282 283 283 284 284 285 285 285 285 285 286 286 286 286 286 286 286 286 286 286
277 276 275 275 275 275 276 276 275 276 276 276 276 276 277 277 277 278 278 278 279 279 280 281 282 282 283 284 284 284 285 285 285 285 285 285 285 286 286 286 286 286
277 276 275 274 275 275 275 275 275 275 275 275 275 275 275 276 276 276 277 277 277 278 279 280 280 281 281 282 282 283 284 284 284 284 284 284 285 285 285 285 285 285
276 277 276 274 274 274 274 274 274 274 274 274 274 274 274 275 275 275 275 276 276 277 278 278 279 279 279 280 280 281 282 282 283 283 284 284 284 284 284 284 284 284
276 276 276 274 273 274 274 274 274 274 274 274 273 274 274 274 274 274 275 275 276 276 276 277 277 277 278 278 279 279 280 280 281 282 282 283 283 284 284 284 284 284
276 275 275 274 273 273 273 273 273 273 274 273 273 273 273 273 274 274 274 274 275 275 275 276 276 276 276 277 277 278 278 279 280 280 281 281 282 282 283 283 283 283
275 275 274 273 272 272 272 272 272 273 273 273 272 272 272 272 273 273 273 273 274 274 274 274 275 275 275 276 276 277 277 278 279 279 280 280 281 281 282 282 282 282
275 274 274 273 272 271 271 271 272 272 272 272 272 271 271 271 272 272 272 272 273 273 273 273 273 274 274 275 275 276 276 277 278 278 279 279 280 280 281 281 281 281
275 274 274 272 271 271 270 270 271 271 271 271 271 271 270 270 271 271 271 271 271 272 272 272 272 272 273 273 274 275 276 277 277 278 278 279 279 279 279 280 280 280
274 274 273 272 271 270 270 270 270 270 270 270 270 270 270 269 270 270 270 270 270 270 270 270 270 271 271 272 273 274 275 276 277 277 277 277 277 277 277 277 277 277
274 273 272 271 270 270 269 269 269 269 269 269 269 269 269 269 269 268 268 269 269 269 269 269 269 269 270 271 273 274 275 275 276 275 275 275 275 275 275 275 275 275
273 273 272 271 270 269 269 268 268 269 268 268 268 268 268 268 268 267 267 267 267 267 267 267 268 268 269 271 272 273 274 275 274 274 273 274 274 273 273 273 273 273
273 272 271 270 269 269 268 268 268 268 268 267 267 267 267 267 267 266 266 266 266 266 266 266 266 267 268 271 272 273 274 274 273 272 272 272 272 271 271 272 272 272
272 272 271 269 268 268 267 267 267 267 267 266 266 266 266 266 266 266 266 265 265 265 265 266 266 266 268 270 271 272 273 273 272 271 271 271 271 270 270 270 271 271
272 271 270 269 268 267 267 266 266 266 266 265 265 265 266 266 266 266 266 265 264 264 265 265 266 267 268 270 271 271 272 272 271 270 270 270 270 269 269 270 270 270
271 270 269 268 267 266 266 266 265 265 265 264 265 265 265 265 266 266 265 265 264 264 265 265 265 266 268 269 270 270 271 270 270 269 270 270 269 269 269 269 269 269
270 269 268 266 266 265 265 265 265 264 264 264 264 265 265 265 265 265 265 265 264 264 265 265 265 265 266 268 269 269 270 269 269 269 269 269 269 269 269 269 269 268
269 267 266 266 265 265 264 264 264 264 264 264 264 264 264 264 264 265 265 265 264 264 264 264 264 264 265 267 268 268 269 268 268 268 269 268 268 269 269 268 268 268
267 266 265 265 264 264 264 264 264 264 263 263 263 263 263 264 264 264 265 265 264 264 263 263 263 264 264 266 267 267 268 267 267 268 268 268 268 268 268 268 267 267
266 265 264 264 264 263 263 263 263 263 263 263 263 262 263 264 264 264 264 264 264 264 263 263 263 263 264 265 266 267 267 267 267 267 267 267 268 268 268 267 267 266
265 264 264 263 263 263 262 262 262 262 262 262 262 262 263 264 264 264 264 264 264 263 263 262 262 262 263 263 265 266 266 267 267 267 267 267 267 267 266 266 265 264
Wind_Speed
20 19 18 18 16 16 16 15 15 14 13 12 12 11 12 12 11 11 10 11 12 12 13 15 16 17 18 19 20 21 21 20 21 21 22 24 25 27 28 29 28 27
20 19 18 17 17 17 17 16 15 14 13 13 12 12 12 12 12 11 10 11 11 11 12 13 14 14 15 16 16 17 18 19 19 19 20 21 21 22 23 23 24 25
19 19 19 18 17 17 17 16 15 14 14 13 13 13 13 12 13 12 10 10 10 10 11 11 13 13 14 15 15 16 17 17 18 18 19 21 21 22 22 22 23 24
17 18 18 17 17 17 17 16 15 14 14 14 14 14 13 13 13 12 11 11 10 9 9 10 11 11 12 13 14 15 16 17 17 17 18 19 20 21 21 21 22 23
16 16 17 16 17 17 16 15 15 15 15 15 15 14 13 13 13 13 12 12 11 10 10 9 9 10 10 11 13 14 15 16 16 16 18 19 19 19 20 20 21 23
16 16 17 17 17 17 16 15 16 15 15 15 15 14 14 14 13 13 13 13 12 12 11 10 10 9 9 9 11 12 13 14 14 15 17 18 18 18 19 19 20 21
17 17 16 17 18 17 16 16 16 15 15 15 15 15 14 14 14 13 13 13 13 12 11 11 10 10 9 9 9 10 11 12 13 14 15 16 16 17 18 18 19 20
18 18 17 17 18 17 16 16 16 15 15 15 15 15 14 14 14 14 14 13 13 12 11 11 10 10 10 9 9 9 10 10 11 12 14 15 15 15 16 17 18 19
18 18 19 18 18 17 15 16 16 15 14 14 15 14 14 14 13 13 13 13 12 12 11 11 11 10 10 10 10 10 10 10 11 11 13 14 14 15 15 16 16 18
18 18 18 17 17 17 16 16 16 15 14 14 14 14 14 13 13 12 12 12 11 11 11 11 11 11 10 10 10 10 10 11 12 13 13 13 13 15 16 16 17 17
18 17 17 17 17 17 16 16 15 14 14 14 14 14 14 13 13 12 12 11 11 11 11 10 10 10 10 10 10 10 10 11 11 12 12 12 13 14 15 16 17 19
19 17 17 18 18 17 16 16 15 14 14 14 13 13 14 13 12 12 12 12 11 11 11 11 10 10 10 9 9 9 9 10 10 11 11 12 12 12 12 13 14 16
19 18 19 19 17 16 17 16 15 14 14 14 13 13 13 13 12 12 12 11 11 11 11 11 11 10 9 8 9 10 10 11 11 11 11 11 11 11 11 11 12 12
19 19 20 20 17 16 16 16 14 14 13 13 13 13 13 12 12 12 11 11 10 10 10 11 10 10 9 9 11 12 12 12 11 11 10 10 10 10 9 9 9 9
19 20 20 19 17 16 16 15 14 13 13 13 12 12 12 12 11 11 11 11 10 10 10 10 10 9 9 10 13 14 14 13 11 9 8 8 7 8 8 8 9 9
19 19 20 18 16 16 15 14 14 13 13 13 12 12 12 12 11 11 11 11 11 11 12 11 10 10 10 11 13 14 15 14 11 9 9 8 7 9 10 11 12 13
18 19 19 18 17 16 15 14 14 13 13 13 12 13 12 11 11 11 10 10 10 12 13 12 11 11 11 13 14 13 15 13 7 7 9 7 8 10 11 11 12 13
17 18 18 17 16 16 15 14 13 13 13 13 13 13 12 11 11 10 9 10 11 12 12 11 11 11 12 14 14 12 14 10 4 6 8 7 8 11 11 10 11 10
15 17 16 15 14 15 14 14 13 13 13 13 13 13 12 11 11 10 9 10 11 11 11 10 9 10 12 14 13 12 13 10 5 7 8 7 9 11 10 9 9 8
14 15 14 13 13 14 13 13 13 13 13 13 13 12 11 11 11 9 9 11 11 10 9 8 8 10 13 13 12 13 13 11 8 8 7 6 8 10 9 8 7 7
14 13 12 12 13 13 12 13 13 13 13 13 12 11 11 11 10 9 9 10 10 9 7 7 7 10 13 13 13 14 14 11 9 9 7 6 7 8 8 6 5 7
12 12 10 11 12 12 12 13 12 12 12 12 12 11 11 10 9 8 8 8 7 7 6 6 7 10 13 14 14 14 13 11 9 8 6 6 8 7 5 4 5 7
10 10 10 10 11 11 11 12 11 11 11 11 11 11 11 10 9 8 7 6 5 5 6 7 9 10 12 14 14 14 13 10 8 8 6 7 8 6 3 4 6 7
9 9 9 9 10 10 10 10 10 11 10 10 10 11 11 10 8 8 7 5 4 5 5 8 11 12 12 13 14 14 13 10 8 7 6 7 7 6 4 6 7 8
9 8 8 9 9 8 9 10 10 10 10 10 10 11 10 9 7 7 6 5 4 4 5 9 12 13 12 13 15 14 13 11 8 7 7 7 7 5 5 6 7 8
7 8 8 9 8 9 10 10 10 9 8 9 10 9 8 7 6 5 5 5 4 4 5 7 10 12 14 14 15 14 14 11 8 7 6 6 6 5 5 7 8 8
Wind_Direction
0 358 356 353 352 353 350 349 349 347 346 347 343 338 336 329 315 307 302 292 283 274 265 257 253 248 243 240 238 236 235 233 233 232 230 231 232 232 233 234 231 229
358 357 354 351 349 348 347 346 345 345 344 344 345 341 338 336 327 320 314 305 295 286 278 268 261 255 250 247 243 242 241 240 239 238 236 234 234 233 232 231 230 230
354 353 351 348 347 344 343 343 342 342 341 340 342 341 337 337 336 333 329 323 312 298 288 278 270 262 258 254 250 249 248 247 246 243 242 240 237 238 238 236 235 235
348 349 347 344 343 342 341 341 340 340 340 338 338 338 336 335 335 334 333 333 329 318 306 292 281 271 264 259 255 254 252 251 250 247 246 244 241 240 241 239 239 239
341 343 343 340 339 339 338 338 338 337 337 336 335 335 333 333 334 332 332 334 331 328 323 313 301 287 275 267 260 256 254 252 250 248 248 248 246 244 243 242 242 242
336 338 340 339 337 336 334 334 335 334 333 333 332 332 331 331 331 330 330 332 330 328 326 323 320 312 299 285 271 262 259 257 254 250 250 250 249 247 246 245 245 245
332 332 335 337 335 333 331 329 330 330 330 330 330 329 329 329 329 329 329 329 328 326 324 323 324 322 319 311 295 281 271 265 261 257 254 253 253 250 248 247 248 248
329 329 330 332 332 329 326 326 327 326 326 327 327 326 326 326 326 326 327 327 326 324 323 324 324 323 323 320 311 304 296 286 275 269 264 260 258 256 254 252 252 252
323 323 323 325 327 324 321 321 321 321 321 323 323 322 322 322 323 323 324 325 325 324 324 325 325 325 324 320 314 309 306 301 291 284 279 274 268 265 263 261 259 258
316 316 318 321 323 321 317 317 317 315 316 319 320 320 320 320 320 322 323 323 323 323 323 324 324 323 322 321 317 313 310 305 298 291 288 287 283 277 274 271 269 267
317 314 318 321 321 319 316 314 314 312 313 317 319 319 320 321 322 323 324 324 323 323 322 322 323 321 320 318 316 314 312 307 304 298 293 291 289 283 280 277 275 273
320 315 316 318 317 317 316 313 312 310 310 314 317 320 321 321 322 323 324 322 323 324 324 324 324 324 323 321 318 318 315 311 307 302 296 292 289 287 285 282 280 279
320 315 315 316 314 313 314 311 309 308 307 310 314 318 320 321 321 322 322 322 323 324 326 327 327 327 326 327 331 329 321 313 305 299 296 292 290 291 293 292 290 289
317 316 316 314 311 310 310 308 307 306 305 307 310 312 316 318 320 321 321 321 322 324 327 329 330 332 332 336 339 334 325 315 309 303 299 298 299 300 301 304 306 306
314 314 314 311 308 310 309 306 306 305 303 305 307 309 313 315 317 321 322 321 322 323 326 330 333 332 333 337 337 332 328 323 318 315 316 321 326 324 322 328 330 326
310 311 313 310 308 310 308 305 305 304 302 303 304 307 310 312 316 320 321 321 321 319 322 329 333 328 330 336 333 328 328 328 324 324 332 344 351 341 336 338 334 327
306 309 311 307 306 308 306 304 304 302 300 301 304 307 307 309 313 317 318 320 317 315 319 326 328 327 334 337 333 330 329 326 319 331 343 354 356 347 344 345 338 332
301 306 306 302 303 305 305 303 302 300 300 300 302 306 305 305 309 312 315 316 314 313 320 327 330 334 341 339 335 335 333 326 319 346 353 357 348 342 344 346 341 337
295 301 301 297 299 302 301 301 301 299 298 299 301 303 302 301 304 307 309 313 316 319 326 333 340 346 346 342 341 341 339 339 351 0 358 352 342 340 341 341 341 341
291 295 293 292 297 299 297 296 297 297 297 299 302 302 300 301 303 304 307 313 320 326 332 339 351 354 349 346 348 346 342 345 357 5 1 350 344 342 338 336 342 350
288 289 286 288 294 295 293 293 294 295 297 300 301 300 300 301 302 304 306 312 320 330 336 343 353 354 350 350 351 347 345 346 348 350 346 338 341 340 334 336 351 357
285 284 281 286 291 291 290 291 292 293 296 299 300 299 300 300 301 304 306 309 317 330 342 347 351 354 352 352 352 349 350 350 344 339 334 326 331 332 330 340 346 348
281 281 280 282 286 286 286 289 293 295 296 298 298 298 300 302 302 304 306 308 313 330 349 349 347 354 355 353 352 353 355 354 343 334 326 320 323 321 315 329 334 340
277 277 277 278 281 280 282 287 292 295 296 296 296 296 297 299 301 303 304 304 305 321 347 348 345 353 358 354 353 354 355 353 342 330 324 321 318 306 297 317 326 336
278 275 274 278 277 274 276 282 286 291 293 293 292 291 292 296 299 300 301 301 293 303 332 342 344 354 3 357 352 353 355 353 342 327 318 316 313 301 303 321 332 340
275 274 277 281 278 275 277 280 283 286 286 288 291 290 290 293 296 295 294 291 281 289 320 338 343 355 4 358 351 353 356 350 341 334 329 333 348 357 343 337 340 343